{"data":{"norad_id":59105,"intl_designator":"2024-043H","name":"PE2_FLT1 (TYVAK-0261)","alt_names":[],"object_type":"PAYLOAD","status":"ACTIVE","operator":null,"country":"US","launch_date":"2024-03-04","launch_site_code":"AFWTR","launch_vehicle":null,"mission":null,"orbit_class":"UNKNOWN","rcs_meters":null,"size_class":null,"mass_kg":null,"dimensions":null,"purposes":[],"wikipedia_slug":null,"has_3d_model":false,"image_url":null,"decayed_at":null,"tle_current":{"epoch":"2026-05-24T22:17:45.225888Z","epoch_age_seconds":84467,"freshness":"FRESH","line1":"1 59105U 24043H   26144.92899567  .00001885  00000+0  16857-3 0  9996","line2":"2 59105  97.8362 275.5149 0007532 111.5129 248.6896 14.97081649121171","mean_motion":14.97081649,"eccentricity":0.0007532,"inclination_deg":97.8362,"raan_deg":275.5149,"arg_perigee_deg":111.5129,"mean_anomaly_deg":248.6896,"bstar":0.00016857,"rev_number":12117,"period_min":96.187138554659,"perigee_km":570.68120074203,"apogee_km":581.15679069398,"semimajor_km":6954.055995718,"source":"CELESTRAK","updated_at":"2026-05-25T13:38:01.190685Z"}}}